Zurück zum Katalog

COSMOS 970 DEB

AktivLEO
NORAD 12865·DEBRIS·🇷🇺 Russia

Gestartet Dec 21, 1977 von Baikonur Cosmodrome

Loading…

Nächste Überflüge (nächste 24 Stunden)

TLE

AlterndSource: Space-Track

Epoche: Sep 11, 2026, 04:21 UTC

1 12865U 77121AT  26254.18159485  .00000318  00000-0  40868-3 0  9991
2 12865  65.7709 317.0454 0063375 356.0862  34.9398 13.75453863109018

Verfolge COSMOS 970 DEB in Echtzeit mit AllMySat

Download on the App Store